Wind_Speed
15 13 10 9 10 8 13 10 9 10 9 7 10 9 6 6 4 5 19 17 16 16 16 16 16 16 15 16 15 14 14 15 14 14 13 14 13 11 9 10 10 11 10 10 11 10 9 9 9
16 16 18 18 8 14 12 11 9 7 6 10 7 5 3 1 5 12 16 17 17 17 16 16 14 14 14 14 15 13 13 13 14 13 12 12 13 11 9 8 7 8 10 10 11 9 8 7 8
14 13 15 9 10 14 12 9 10 8 7 10 2 1 2 3 4 15 14 14 16 16 15 13 13 12 12 12 13 13 13 13 12 12 12 11 11 10 8 8 7 6 7 8 8 7 8 7 8
14 17 19 14 14 12 12 10 11 10 8 5 3 1 5 11 13 14 15 14 15 15 14 11 11 11 12 12 12 12 11 11 10 10 10 10 10 9 7 7 6 5 6 6 6 5 6 7 6
14 16 9 13 12 11 10 9 9 7 6 5 3 2 14 15 17 16 15 15 14 14 13 11 10 11 12 13 11 11 10 9 9 9 9 9 8 7 6 6 6 5 6 5 4 3 3 4 5
12 9 8 14 9 7 7 7 7 7 8 7 8 11 18 21 18 17 16 16 16 13 12 11 11 11 12 12 11 11 10 10 9 9 8 7 6 6 5 5 5 4 4 3 2 2 2 1 1
10 7 10 11 9 7 4 5 7 7 8 9 11 13 18 21 20 18 17 17 17 15 13 12 12 12 12 12 12 11 10 10 10 8 7 5 4 3 3 3 3 3 3 3 3 4 4 4 4
10 10 7 6 9 7 4 5 6 7 7 9 10 3 13 18 20 19 18 17 17 17 15 13 14 14 14 14 13 12 11 11 10 7 6 4 3 1 2 2 2 2 2 3 4 6 6 7 6
9 5 11 10 7 7 4 5 6 5 5 5 5 11 11 15 18 19 19 18 17 17 16 15 15 15 16 15 13 12 11 9 8 6 4 3 1 2 4 4 3 4 5 6 6 7 6 8 9
6 7 4 5 4 3 4 4 4 6 7 6 6 12 15 15 17 17 17 18 17 18 17 15 15 14 14 13 12 11 10 9 7 6 4 3 2 0 3 6 6 7 7 8 9 10 10 11 12
4 3 1 2 1 5 4 4 4 5 4 3 3 13 18 18 19 19 19 18 17 16 16 15 13 13 12 11 9 8 8 7 5 3 3 2 1 0 2 3 4 5 6 7 10 11 11 13 13
6 4 3 0 2 1 3 4 5 5 3 2 4 13 16 16 17 18 20 20 18 16 16 14 12 10 9 9 8 7 6 5 4 2 1 1 1 1 2 3 4 6 6 9 9 9 10 10 11
8 4 2 2 0 2 2 3 3 6 1 2 5 14 12 17 18 17 19 19 20 17 15 13 11 9 8 7 6 6 6 6 5 4 3 1 1 2 2 5 7 7 10 10 11 11 11 10 8
7 6 2 4 2 2 3 3 3 3 3 4 8 16 14 18 16 17 20 19 19 18 15 12 11 8 8 9 7 7 7 6 6 3 2 1 2 2 4 9 10 12 12 11 12 12 14 13 12
4 2 6 5 3 2 3 3 3 3 4 4 12 19 19 18 16 17 19 19 19 17 15 13 11 8 7 7 6 5 6 5 3 2 1 1 2 4 6 12 11 16 18 16 15 11 13 14 12
4 2 8 6 2 6 2 2 5 5 4 6 14 20 22 20 18 21 22 20 18 18 15 13 11 10 7 5 4 4 4 4 3 4 3 2 4 7 11 15 17 19 20 16 13 13 11 12 11
3 9 10 9 11 4 3 4 4 7 10 11 13 18 22 20 22 23 21 21 18 17 15 13 11 10 8 7 6 6 6 6 5 4 3 5 8 10 13 18 20 22 21 20 15 14 10 11 9
9 12 12 12 10 4 7 6 6 6 10 14 13 15 19 22 23 24 23 22 23 19 16 14 12 10 9 9 9 8 7 5 4 3 3 6 9 11 12 15 19 26 20 20 13 12 8 5 4
11 12 13 14 8 5 6 9 9 8 12 17 16 16 16 21 22 24 25 24 24 21 19 15 11 10 9 9 10 9 8 5 2 2 4 6 7 11 12 12 17 24 14 5 10 8 4 4 4
11 12 11 8 13 7 9 11 11 13 13 15 17 17 17 19 23 25 27 27 25 22 21 18 14 9 9 12 12 10 9 5 2 1 3 7 9 11 12 11 13 15 14 12 10 4 3 3 2
11 10 12 15 8 9 15 2 10 4 11 18 18 18 18 18 22 25 27 26 27 25 23 20 16 13 11 12 14 12 9 5 4 3 4 7 9 11 12 11 10 10 10 9 4 1 2 4 4
14 7 10 11 8 7 9 10 5 8 5 14 20 22 23 22 19 22 26 27 27 26 24 22 19 18 17 16 15 13 11 8 4 4 5 6 8 11 12 11 8 8 7 5 5 5 5 7 9
12 12 10 10 10 12 4 8 4 10 6 5 12 21 25 24 23 22 23 26 27 27 26 25 21 21 20 18 16 13 11 9 6 7 6 8 11 12 11 10 8 8 8 7 7 7 9 10 11
11 10 12 10 11 15 5 8 4 7 10 5 9 17 19 24 24 24 23 23 26 28 28 27 24 23 22 19 17 14 12 9 6 7 7 8 11 11 11 10 8 7 7 7 8 8 9 10 11
14 13 15 9 8 5 4 10 10 11 13 5 8 12 21 22 24 21 24 25 26 29 30 28 25 26 23 21 19 15 13 10 7 5 6 8 11 11 11 9 8 7 7 8 8 9 10 11 12
17 19 17 7 7 7 2 5 10 13 11 5 5 9 15 23 25 25 23 25 27 27 27 27 25 25 24 22 19 18 15 11 7 6 8 9 11 11 10 8 7 7 8 9 10 11 12 12 13
19 17 17 16 12 12 6 7 9 7 7 1 3 6 11 21 24 25 25 24 23 23 24 24 25 26 24 23 21 20 16 12 9 9 10 11 12 13 11 8 7 7 8 10 11 11 12 12 12
24 14 14 19 12 11 3 8 3 8 7 3 3 3 6 17 23 24 22 22 20 19 20 23 23 25 24 24 23 21 18 14 12 12 13 12 12 13 10 9 8 7 6 7 8 8 9 11 13
20 24 19 17 11 11 10 1 3 7 8 2 2 2 8 12 17 20 20 20 20 21 20 21 23 25 26 25 22 23 20 16 14 12 13 13 13 12 10 9 8 7 7 8 9 9 10 14 16
13 18 24 21 21 15 14 7 2 5 10 9 2 8 11 13 15 18 22 25 23 22 22 22 21 24 26 26 24 25 23 20 17 14 13 14 15 14 12 12 10 9 8 8 7 9 14 17 19
Wind_Direction
80 84 85 81 67 76 70 65 108 114 107 119 120 110 114 108 77 137 152 138 131 132 128 125 120 121 121 123 126 126 128 127 128 129 126 119 116 116 110 110 113 123 120 116 123 135 133 134 124
84 83 86 85 88 86 73 73 94 113 107 130 115 91 86 17 32 135 144 137 135 135 133 126 120 119 123 125 126 125 125 127 128 127 122 119 115 114 111 111 116 115 121 118 114 126 140 133 136
86 98 87 79 70 74 81 85 94 115 112 131 146 135 123 152 102 139 143 137 134 135 133 129 125 124 127 129 129 129 128 127 128 129 124 122 118 118 118 116 115 121 127 122 117 121 126 147 142
86 92 83 83 84 78 85 93 99 96 100 136 127 57 146 137 142 141 142 137 136 139 138 135 131 130 130 130 132 129 129 126 126 133 128 124 122 123 133 125 125 125 111 107 114 139 137 142 142
80 86 88 87 86 84 89 98 98 75 97 108 122 135 140 140 139 141 139 138 139 143 145 142 136 131 131 131 128 123 125 129 128 130 125 124 129 131 138 135 132 137 122 116 121 129 152 149 138
74 80 84 83 84 85 87 96 94 90 98 80 108 132 146 142 142 143 143 143 143 147 144 140 137 134 132 129 120 117 117 117 118 122 120 121 124 136 147 156 157 157 142 146 167 180 187 201 181
80 64 79 83 80 83 101 101 84 85 93 96 117 139 152 146 147 147 148 148 142 140 140 140 137 132 129 128 122 118 117 115 116 117 122 121 116 133 144 161 168 167 177 188 223 219 229 241 242
80 78 79 79 74 78 109 92 98 92 91 77 121 177 161 154 150 150 149 147 143 142 143 141 134 131 132 134 135 134 132 127 124 122 128 117 105 124 243 212 202 217 241 242 234 235 234 247 256
80 83 79 81 72 77 76 78 76 72 73 85 103 151 167 159 152 150 148 146 145 143 141 141 138 138 138 138 139 136 133 129 123 122 126 114 62 273 263 265 273 264 264 257 256 260 254 257 260
74 55 81 76 69 112 117 111 81 92 136 64 89 163 161 158 150 147 145 144 146 145 144 146 144 141 137 138 139 142 142 143 138 131 121 102 90 31 295 277 269 267 263 266 264 265 266 264 266
78 67 44 76 99 121 72 109 131 112 142 19 98 153 155 154 153 146 146 145 148 145 142 144 146 147 145 143 147 152 154 148 147 131 125 136 136 242 315 346 318 291 284 279 275 270 274 274 271
57 63 87 76 355 163 135 136 133 140 127 243 152 149 147 158 154 151 156 153 149 147 143 145 145 143 149 157 163 171 177 165 177 172 141 101 174 293 306 312 289 297 295 275 277 282 269 266 269
18 347 58 52 334 202 205 160 174 178 182 239 200 159 158 153 157 160 158 157 152 149 147 147 151 161 170 171 180 190 181 185 183 182 169 140 310 313 306 324 307 298 286 277 272 270 268 264 276
1 44 42 16 318 249 174 189 151 185 195 228 193 172 172 168 166 165 162 161 158 155 148 148 152 148 146 149 140 134 142 141 139 165 191 260 300 304 308 319 313 316 289 295 286 266 261 267 274
355 22 351 3 346 290 217 252 181 216 164 205 180 178 177 177 175 163 157 151 151 154 153 151 150 149 153 153 142 133 129 134 151 173 188 304 323 329 346 343 320 299 301 288 268 270 264 260 268
13 23 18 335 320 341 353 71 250 227 166 157 183 182 183 186 179 168 156 149 146 141 143 146 151 151 153 152 148 139 134 134 110 82 71 23 338 324 319 314 313 309 305 300 270 269 271 267 267
334 2 11 3 354 294 330 337 295 224 210 176 180 189 189 188 184 182 171 155 150 142 141 142 146 148 151 154 150 144 120 106 95 71 24 344 330 325 322 322 322 315 303 291 282 250 272 260 260
325 337 347 350 321 286 276 274 270 223 210 196 186 187 195 193 195 191 180 166 155 151 145 147 145 153 155 155 148 139 127 111 97 59 5 348 347 337 330 327 331 333 314 286 271 224 266 236 236
304 319 330 338 327 327 275 271 249 264 220 201 199 194 194 201 200 196 184 178 168 168 163 154 144 150 161 166 162 158 151 143 129 23 360 2 351 349 347 341 347 3 356 343 173 182 201 222 253
291 307 334 355 329 340 312 303 271 238 234 209 204 202 198 197 200 202 195 187 184 178 173 170 168 161 170 179 181 180 169 169 192 342 353 356 359 357 355 348 1 12 24 49 153 174 199 245 290
275 300 322 329 323 348 350 252 350 300 219 216 214 205 204 204 200 203 204 200 189 186 184 179 176 177 182 189 190 185 184 206 245 293 330 339 348 359 357 350 349 360 17 39 68 35 258 265 290
261 287 318 327 328 352 348 337 350 341 283 228 214 208 204 205 203 205 209 212 203 194 190 187 188 188 187 192 191 191 197 219 250 293 291 316 347 355 356 352 342 343 347 342 335 313 294 284 291
261 263 296 312 299 309 105 302 10 350 342 259 222 205 205 206 209 208 207 210 212 202 195 192 193 197 196 191 192 200 206 221 255 287 296 321 344 349 347 344 339 338 336 331 318 307 301 299 297
247 270 278 287 280 279 50 334 293 357 337 256 213 203 206 205 207 209 209 210 208 204 199 194 202 198 199 196 195 198 212 224 242 281 319 332 340 342 339 340 338 335 334 332 323 316 305 296 291
238 252 266 250 237 318 347 308 293 311 318 260 216 212 205 206 208 204 203 206 207 207 204 203 202 201 199 201 203 204 209 217 232 282 324 330 336 337 334 333 334 337 342 337 330 324 320 316 312
235 243 264 284 295 335 283 281 318 317 333 273 237 219 217 210 211 214 216 211 209 209 206 206 207 202 204 207 208 207 208 215 238 272 305 326 332 330 324 324 331 339 347 343 341 337 334 329 323
228 237 249 280 265 269 289 313 306 333 345 250 275 261 222 210 210 213 214 216 213 213 213 213 209 208 207 211 213 215 215 221 241 266 292 314 322 326 318 314 328 341 348 349 350 346 345 343 338
221 252 230 240 267 271 336 299 270 349 355 288 244 254 204 200 204 208 210 213 210 212 217 217 217 219 219 219 221 220 219 226 242 265 286 301 313 320 318 315 320 328 335 343 345 351 357 1 353
216 227 238 268 272 291 281 354 101 354 336 16 213 179 202 202 211 214 216 213 215 213 216 220 219 217 222 226 224 219 221 230 246 260 276 288 298 303 292 289 293 297 320 334 345 352 359 357 350
211 229 234 231 247 252 278 311 66 321 333 343 241 192 184 194 205 216 226 224 221 221 224 228 227 225 222 223 223 221 227 236 246 251 266 282 287 291 286 279 283 288 296 309 331 342 347 347 346
Height
3161 3160 3160 3160 3165 3163 3163 3165 3164 3164 3166 3165 3165 3168 3170 3169 3170 3173 3172 3173 3175 3176 3178 3180 3181 3183 3184 3185 3187 3188 3189 3190 3191 3192 3192 3193 3195 3196 3197 3198 3199 3200 3201 3201 3201 3203 3204 3205 3205
3164 3163 3162 3163 3164 3162 3167 3167 3166 3167 3166 3165 3167 3168 3170 3169 3169 3168 3171 3173 3176 3178 3180 3181 3183 3185 3186 3187 3189 3190 3191 3192 3192 3193 3195 3196 3197 3198 3199 3200 3201 3202 3203 3203 3203 3205 3205 3206 3206
3166 3166 3166 3167 3166 3166 3169 3169 3168 3167 3166 3168 3168 3168 3169 3170 3170 3171 3173 3174 3176 3178 3181 3183 3185 3187 3188 3189 3190 3192 3193 3194 3195 3195 3196 3198 3199 3200 3202 3202 3202 3204 3204 3204 3205 3206 3207 3208 3208
3168 3169 3170 3171 3170 3171 3171 3170 3169 3168 3168 3169 3169 3168 3169 3170 3172 3173 3174 3176 3178 3180 3183 3185 3187 3188 3190 3191 3193 3194 3195 3196 3197 3198 3198 3199 3200 3202 3204 3204 3205 3205 3205 3205 3206 3207 3208 3209 3210
3171 3171 3173 3172 3173 3173 3172 3171 3171 3172 3170 3170 3169 3168 3169 3171 3173 3174 3176 3178 3181 3182 3184 3186 3188 3189 3191 3193 3194 3196 3197 3198 3199 3199 3200 3201 3202 3204 3205 3205 3206 3206 3207 3206 3207 3208 3209 3210 3211
3173 3172 3172 3173 3175 3174 3174 3173 3173 3173 3171 3169 3169 3168 3170 3171 3174 3176 3178 3180 3182 3184 3186 3187 3189 3191 3192 3193 3195 3196 3198 3199 3199 3200 3201 3202 3203 3204 3205 3206 3207 3207 3207 3207 3208 3209 3210 3211 3212
3175 3175 3176 3175 3176 3176 3176 3174 3174 3174 3173 3172 3171 3172 3172 3173 3174 3177 3179 3181 3183 3185 3187 3189 3190 3192 3193 3195 3196 3198 3199 3200 3201 3201 3202 3203 3204 3204 3205 3206 3207 3207 3208 3208 3209 3210 3210 3211 3211
3176 3176 3177 3177 3176 3178 3176 3175 3174 3176 3174 3173 3173 3174 3174 3174 3175 3177 3180 3182 3184 3185 3187 3190 3191 3193 3194 3196 3197 3199 3200 3201 3201 3202 3203 3204 3204 3204 3205 3206 3206 3207 3207 3208 3208 3209 3210 3210 3211
3178 3176 3178 3178 3177 3179 3176 3176 3175 3175 3174 3174 3173 3173 3174 3175 3177 3178 3181 3183 3185 3187 3189 3191 3193 3194 3196 3197 3198 3200 3201 3201 3202 3203 3204 3204 3204 3205 3205 3205 3206 3207 3207 3207 3208 3208 3209 3210 3210
3179 3179 3179 3178 3179 3178 3177 3178 3176 3176 3175 3175 3174 3173 3174 3177 3178 3180 3182 3184 3187 3189 3191 3193 3194 3196 3197 3198 3200 3201 3201 3202 3203 3204 3204 3205 3205 3205 3205 3205 3205 3206 3207 3207 3207 3207 3207 3207 3208
3180 3181 3179 3180 3179 3179 3177 3177 3178 3178 3178 3176 3174 3174 3175 3177 3179 3181 3183 3186 3188 3190 3192 3195 3196 3197 3198 3199 3200 3202 3202 3202 3203 3204 3204 3205 3205 3205 3205 3205 3204 3204 3205 3206 3206 3206 3206 3206 3205
3182 3180 3179 3179 3178 3178 3177 3177 3178 3179 3179 3177 3175 3176 3177 3178 3181 3182 3184 3186 3189 3191 3193 3195 3197 3198 3199 3200 3200 3201 3202 3203 3203 3204 3204 3205 3205 3205 3206 3205 3205 3205 3205 3205 3204 3205 3204 3203 3203
3182 3181 3179 3179 3178 3179 3178 3178 3179 3178 3176 3175 3175 3176 3178 3180 3182 3184 3186 3188 3189 3192 3194 3195 3197 3197 3198 3200 3200 3200 3201 3202 3203 3204 3205 3205 3205 3206 3206 3206 3205 3205 3205 3203 3202 3203 3202 3201 3201
3183 3181 3180 3179 3179 3178 3178 3178 3177 3177 3176 3174 3174 3176 3179 3181 3183 3185 3186 3188 3190 3192 3193 3195 3196 3198 3199 3200 3200 3201 3202 3202 3203 3204 3205 3205 3205 3205 3206 3205 3204 3204 3203 3202 3201 3200 3200 3200 3199
3182 3182 3181 3179 3179 3178 3178 3178 3178 3176 3176 3174 3175 3176 3179 3182 3184 3186 3187 3189 3190 3192 3193 3194 3196 3198 3199 3200 3201 3201 3202 3203 3204 3204 3204 3205 3205 3205 3205 3203 3201 3201 3200 3198 3197 3197 3197 3197 3197
3182 3181 3181 3179 3177 3177 3178 3177 3176 3176 3176 3175 3175 3176 3179 3181 3184 3187 3188 3189 3191 3192 3193 3195 3196 3197 3199 3201 3201 3202 3202 3203 3203 3204 3205 3205 3205 3204 3203 3202 3200 3197 3196 3194 3193 3193 3194 3195 3195
3182 3180 3180 3180 3177 3177 3177 3178 3175 3175 3175 3176 3176 3177 3178 3181 3184 3186 3188 3189 3192 3192 3193 3195 3196 3197 3199 3200 3201 3202 3203 3204 3204 3205 3205 3204 3204 3203 3201 3199 3196 3193 3190 3189 3189 3190 3192 3193 3193
3182 3181 3180 3180 3178 3175 3176 3176 3174 3174 3175 3177 3176 3177 3178 3180 3183 3186 3187 3189 3190 3192 3193 3194 3196 3197 3198 3199 3201 3203 3204 3205 3205 3206 3205 3204 3203 3202 3200 3197 3193 3187 3183 3182 3184 3187 3191 3192 3192
3182 3181 3179 3178 3175 3173 3174 3173 3173 3171 3173 3176 3176 3176 3177 3179 3182 3185 3185 3188 3189 3191 3193 3195 3196 3197 3199 3200 3201 3202 3204 3205 3206 3206 3205 3204 3203 3201 3199 3196 3192 3187 3182 3179 3181 3186 3190 3191 3191
3181 3179 3177 3177 3173 3172 3172 3170 3170 3168 3169 3172 3174 3175 3177 3178 3181 3182 3184 3185 3187 3190 3192 3193 3195 3197 3198 3200 3202 3203 3204 3205 3205 3205 3205 3204 3203 3201 3198 3195 3193 3190 3187 3184 3185 3188 3189 3190 3191
3179 3178 3177 3177 3173 3170 3169 3167 3166 3165 3165 3168 3170 3173 3176 3176 3178 3180 3182 3183 3185 3187 3189 3192 3194 3195 3197 3199 3201 3203 3204 3204 3205 3205 3204 3204 3202 3199 3197 3195 3194 3192 3190 3189 3189 3189 3190 3190 3190
3177 3176 3177 3175 3174 3170 3170 3167 3166 3164 3162 3162 3165 3168 3172 3174 3175 3177 3180 3181 3183 3185 3188 3189 3191 3194 3195 3197 3200 3202 3203 3204 3204 3204 3203 3203 3201 3198 3196 3194 3193 3192 3191 3191 3191 3190 3190 3189 3189
3177 3175 3177 3175 3172 3170 3168 3166 3162 3163 3162 3161 3160 3164 3167 3170 3172 3173 3176 3179 3181 3184 3185 3187 3189 3191 3194 3196 3198 3200 3201 3202 3203 3203 3202 3201 3200 3197 3195 3194 3192 3191 3190 3189 3190 3189 3189 3188 3187
3174 3175 3175 3173 3170 3164 3166 3169 3160 3162 3163 3161 3159 3159 3162 3165 3169 3171 3174 3176 3178 3181 3183 3185 3186 3189 3192 3194 3196 3198 3200 3201 3201 3201 3201 3200 3198 3196 3195 3193 3192 3191 3189 3189 3188 3187 3187 3186 3185
3172 3173 3168 3165 3159 3161 3166 3166 3162 3161 3160 3158 3158 3157 3159 3161 3164 3167 3170 3172 3174 3177 3180 3182 3184 3187 3190 3192 3194 3196 3198 3199 3200 3200 3200 3199 3198 3196 3194 3192 3191 3190 3189 3188 3187 3186 3185 3184 3183
3169 3170 3166 3163 3159 3159 3163 3161 3158 3158 3156 3154 3155 3155 3156 3158 3161 3164 3167 3170 3171 3174 3177 3179 3182 3185 3188 3191 3193 3195 3196 3197 3197 3198 3198 3198 3197 3195 3194 3192 3190 3189 3189 3188 3187 3185 3183 3182 3180
3166 3167 3167 3164 3161 3162 3156 3159 3156 3157 3155 3154 3154 3153 3153 3156 3159 3162 3164 3167 3170 3172 3175 3177 3180 3183 3185 3188 3190 3192 3194 3195 3196 3196 3196 3196 3196 3194 3193 3191 3190 3190 3189 3188 3186 3184 3182 3181 3179
3161 3164 3165 3163 3161 3159 3153 3155 3155 3156 3156 3154 3155 3153 3153 3155 3158 3161 3164 3166 3168 3171 3174 3176 3178 3181 3184 3186 3188 3190 3192 3193 3193 3194 3194 3194 3194 3192 3191 3190 3190 3189 3188 3186 3185 3183 3181 3179 3177
3158 3159 3161 3160 3158 3156 3153 3150 3154 3156 3154 3154 3155 3155 3156 3157 3159 3161 3163 3165 3168 3170 3172 3174 3176 3178 3181 3183 3186 3188 3189 3190 3191 3192 3192 3192 3191 3190 3189 3188 3187 3187 3186 3186 3184 3182 3180 3177 3175
3152 3153 3155 3157 3156 3156 3156 3153 3152 3154 3154 3154 3154 3154 3155 3156 3158 3159 3161 3163 3165 3167 3169 3171 3173 3175 3178 3181 3183 3184 3186 3187 3188 3189 3188 3188 3188 3187 3186 3186 3186 3186 3185 3184 3182 3180 3178 3176 3174